Weather History for Sturgeon Bay, WI

Change the Weather History Date:

Thursday, January 8, 2015

  Actual Average Record
Temperature  
Mean Temperature 0 °F -  
Max Temperature 5 °F 21 °F 48 °F (2003)
Min Temperature -5 °F 4 °F -20 °F (1929)
Degree Days  
Heating Degree Days 65    
Moisture  
Dew Point -7 °F    
Average Humidity 69    
Maximum Humidity 85    
Minimum Humidity 51    
Precipitation  
Precipitation 0.00 in - - ()
Sea Level Pressure  
Sea Level Pressure 29.94 in    
Wind  
Wind Speed 15 mph (WSW)    
Max Wind Speed 23 mph    
Max Gust Speed 29 mph    
Visibility 7 miles    
Events      
Averages and records for this station are not official NWS values.
T = Trace of Precipitation, MM = Missing Value Source: NWS Daily Summary

Daily Weather History Graph

Daily Weather History Graph

Search for Another Location

Airport:

Trip Planner

Search our weather history database for the weather conditions in past years. The results will help you decide how hot, cold, wet, or windy it might be!

Date:

Astronomy

Jan. 08, 2015 Rise Set
Actual Time 7:26 AM CST 4:26 PM CST
Civil Twilight 6:53 AM CST 4:59 PM CST
Nautical Twilight 6:16 AM CST 5:36 PM CST
Astronomical Twilight 5:41 AM CST 6:11 PM CST
Moon 8:15 PM CST (1/8) 9:03 AM CST (1/8)
Length of Visible Light 10h 05m
Length of Day
8h 59m
Waning Gibbous, 89% of the Moon is Illuminated
Jan 8
Waning Gibbous
Jan 13
Last Quarter
Jan 20
New
Jan 26
First Quarter
Feb 3
Full

Hourly Weather History & Observations

Time (CST) Temp. Windchill Dew Point Humidity Pressure Visibility Wind Dir Wind Speed Gust Speed Precip Events Conditions
12:15 AM -5.8 °F -27.5 °F -16.6 °F 60% 30.39 in 10.0 mi West 16.1 mph 20.7 mph N/A   Clear
12:35 AM -5.8 °F -26.8 °F -14.8 °F 65% 30.39 in 10.0 mi West 15.0 mph - N/A   Clear
12:55 AM -5.8 °F -26.8 °F -14.8 °F 65% 30.38 in 10.0 mi West 15.0 mph 19.6 mph N/A   Clear
1:15 AM -5.8 °F -26.0 °F -14.8 °F 65% 30.37 in 10.0 mi West 13.8 mph 17.3 mph N/A   Clear
1:35 AM -5.8 °F -25.2 °F -14.8 °F 65% 30.36 in 10.0 mi WSW 12.7 mph 19.6 mph N/A   Clear
1:55 AM -5.8 °F -26.0 °F -14.8 °F 65% 30.35 in 10.0 mi WSW 13.8 mph 21.9 mph N/A   Clear
2:15 AM -5.8 °F -26.0 °F -14.8 °F 65% 30.33 in 10.0 mi WSW 13.8 mph 19.6 mph N/A   Clear
2:35 AM -5.8 °F -25.2 °F -14.8 °F 65% 30.31 in 10.0 mi WSW 12.7 mph 19.6 mph N/A   Clear
2:55 AM -5.8 °F -26.8 °F -13.0 °F 71% 30.30 in 10.0 mi WSW 15.0 mph - N/A   Clear
3:15 AM -5.8 °F -26.0 °F -14.8 °F 65% 30.29 in 10.0 mi WSW 13.8 mph 20.7 mph N/A   Clear
3:35 AM -5.8 °F -26.8 °F -14.8 °F 65% 30.28 in 10.0 mi WSW 15.0 mph 19.6 mph N/A   Clear
3:55 AM -5.8 °F -28.2 °F -14.8 °F 65% 30.27 in 10.0 mi WSW 17.3 mph 24.2 mph N/A   Clear
4:15 AM -5.8 °F -26.8 °F -14.8 °F 65% 30.25 in 10.0 mi WSW 15.0 mph 20.7 mph N/A   Clear
4:35 AM -5.8 °F -28.8 °F -14.8 °F 65% 30.24 in 10.0 mi WSW 18.4 mph 23.0 mph N/A   Clear
4:55 AM -5.8 °F -28.2 °F -14.8 °F 65% 30.24 in 10.0 mi WSW 17.3 mph 21.9 mph N/A   Clear
5:15 AM -5.8 °F -27.5 °F -14.8 °F 65% 30.23 in 10.0 mi WSW 16.1 mph 26.5 mph N/A   Clear
5:35 AM -5.8 °F -26.8 °F -13.0 °F 71% 30.21 in 10.0 mi WSW 15.0 mph - N/A   Clear
5:55 AM -4.0 °F -23.7 °F -13.0 °F 65% 30.19 in 10.0 mi WSW 13.8 mph 20.7 mph N/A   Clear
6:15 AM -4.0 °F -24.5 °F -14.8 °F 60% 30.18 in 10.0 mi WSW 15.0 mph - N/A   Clear
6:35 AM -4.0 °F -23.0 °F -14.8 °F 60% 30.17 in 10.0 mi WSW 12.7 mph - N/A   Clear
6:55 AM -4.0 °F -25.2 °F -13.0 °F 65% 30.15 in 10.0 mi SW 16.1 mph 21.9 mph N/A   Clear
7:15 AM -4.0 °F -23.0 °F -13.0 °F 65% 30.14 in 10.0 mi SW 12.7 mph 19.6 mph N/A   Clear
7:35 AM -2.2 °F -22.9 °F -13.0 °F 60% 30.13 in 10.0 mi WSW 16.1 mph 23.0 mph N/A   Partly Cloudy
7:55 AM -2.2 °F -19.9 °F -11.2 °F 66% 30.12 in 10.0 mi WSW 11.5 mph 18.4 mph N/A   Mostly Cloudy
8:15 AM -2.2 °F -20.7 °F -11.2 °F 66% 30.10 in 10.0 mi WSW 12.7 mph - N/A   Overcast
8:35 AM -0.4 °F -16.7 °F -11.2 °F 60% 30.09 in 10.0 mi SW 10.4 mph - N/A   Overcast
8:55 AM -0.4 °F -17.6 °F -11.2 °F 60% 30.08 in 10.0 mi SW 11.5 mph - N/A   Scattered Clouds
9:15 AM -0.4 °F -16.7 °F -11.2 °F 60% 30.07 in 10.0 mi SW 10.4 mph 16.1 mph N/A   Partly Cloudy
9:35 AM -0.4 °F -18.4 °F -9.4 °F 66% 30.05 in 10.0 mi SW 12.7 mph - N/A   Mostly Cloudy
9:55 AM 1.4 °F -16.1 °F -11.2 °F 56% 30.03 in 10.0 mi SW 12.7 mph 18.4 mph N/A   Overcast
10:15 AM 1.4 °F -16.1 °F -9.4 °F 61% 30.01 in 10.0 mi SW 12.7 mph - N/A   Overcast
10:35 AM 1.4 °F -18.2 °F -9.4 °F 61% 29.98 in 10.0 mi SW 16.1 mph 20.7 mph N/A   Overcast
10:55 AM 1.4 °F -16.1 °F -9.4 °F 61% 29.95 in 10.0 mi SW 12.7 mph 18.4 mph N/A   Overcast
11:15 AM 3.2 °F -14.6 °F -11.2 °F 51% 29.92 in 10.0 mi SSW 13.8 mph - N/A   Overcast
11:35 AM 3.2 °F -14.6 °F -7.6 °F 61% 29.90 in 10.0 mi SSW 13.8 mph 20.7 mph N/A   Overcast
11:55 AM 3.2 °F -16.5 °F -9.4 °F 56% 29.87 in 8.0 mi SSW 17.3 mph 24.2 mph N/A   Mostly Cloudy
12:15 PM 3.2 °F -15.3 °F -2.2 °F 78% 29.83 in 1.2 mi SSW 15.0 mph 19.6 mph N/A   Overcast
12:35 PM 3.2 °F -14.6 °F -2.2 °F 78% 29.81 in 1.5 mi SSW 13.8 mph 18.4 mph N/A   Overcast
12:55 PM 3.2 °F -13.1 °F -0.4 °F 85% 29.77 in 1.0 mi SSW 11.5 mph - N/A   Overcast
1:15 PM 5.0 °F -11.6 °F -2.2 °F 72% 29.76 in 1.2 mi SSW 12.7 mph 19.6 mph N/A   Overcast
1:35 PM 5.0 °F -12.3 °F -0.4 °F 78% 29.75 in 1.2 mi SW 13.8 mph 20.7 mph N/A   Overcast
1:55 PM 5.0 °F -13.6 °F -2.2 °F 72% 29.73 in 2.0 mi SW 16.1 mph 25.3 mph N/A   Overcast
2:15 PM 5.0 °F -15.2 °F -2.2 °F 72% 29.72 in 2.5 mi SW 19.6 mph 26.5 mph N/A   Overcast
2:35 PM 5.0 °F -14.2 °F -2.2 °F 72% 29.71 in 1.8 mi SW 17.3 mph 27.6 mph N/A   Overcast
2:55 PM 3.2 °F -16.5 °F -2.2 °F 78% 29.70 in 1.5 mi SW 17.3 mph 24.2 mph N/A   Overcast
3:15 PM 3.2 °F -19.0 °F -5.8 °F 66% 29.69 in 2.0 mi SW 23.0 mph 28.8 mph N/A   Overcast
3:35 PM 3.2 °F -17.6 °F -4.0 °F 72% 29.69 in 1.5 mi SW 19.6 mph 26.5 mph N/A   Overcast
3:55 PM 3.2 °F -17.6 °F -4.0 °F 72% 29.68 in 1.2 mi SW 19.6 mph 27.6 mph N/A   Overcast
4:15 PM 3.2 °F -17.1 °F -2.2 °F 78% 29.68 in 1.8 mi SW 18.4 mph 25.3 mph N/A   Overcast
4:35 PM 3.2 °F -15.9 °F -2.2 °F 78% 29.67 in 2.0 mi SW 16.1 mph 20.7 mph N/A   Overcast
4:55 PM 3.2 °F -17.1 °F -2.2 °F 78% 29.67 in 1.8 mi SW 18.4 mph 23.0 mph N/A   Overcast
5:15 PM 3.2 °F -15.9 °F -2.2 °F 78% 29.66 in 1.2 mi WSW 16.1 mph 20.7 mph N/A   Overcast
5:35 PM 3.2 °F -15.3 °F -2.2 °F 78% 29.66 in 1.2 mi WSW 15.0 mph - N/A   Overcast
5:55 PM 3.2 °F -14.6 °F -0.4 °F 85% 29.66 in 1.8 mi WSW 13.8 mph 19.6 mph N/A   Overcast
6:15 PM 3.2 °F -14.6 °F -2.2 °F 78% 29.66 in 1.5 mi WSW 13.8 mph 20.7 mph N/A   Overcast
6:35 PM 5.0 °F -10.8 °F -0.4 °F 78% 29.66 in 2.0 mi WSW 11.5 mph - N/A   Overcast
6:55 PM 5.0 °F -12.3 °F -0.4 °F 78% 29.66 in 1.8 mi WSW 13.8 mph 19.6 mph N/A   Overcast
7:15 PM 5.0 °F -13.0 °F -0.4 °F 78% 29.66 in 3.0 mi West 15.0 mph - N/A   Overcast
7:35 PM 5.0 °F -11.6 °F -0.4 °F 78% 29.67 in 9.0 mi West 12.7 mph - N/A   Mostly Cloudy
7:55 PM 5.0 °F -10.8 °F -0.4 °F 78% 29.67 in 10.0 mi West 11.5 mph 18.4 mph N/A   Overcast
8:15 PM 3.2 °F -13.9 °F -2.2 °F 78% 29.67 in 10.0 mi West 12.7 mph - N/A   Overcast
8:35 PM 3.2 °F -13.1 °F -0.4 °F 85% 29.67 in 10.0 mi West 11.5 mph 16.1 mph N/A   Mostly Cloudy
8:55 PM 5.0 °F -11.6 °F -2.2 °F 72% 29.67 in 10.0 mi West 12.7 mph 17.3 mph N/A   Overcast
9:15 PM 5.0 °F -12.3 °F -2.2 °F 72% 29.67 in 10.0 mi West 13.8 mph 19.6 mph N/A   Overcast
9:35 PM 5.0 °F -13.0 °F -2.2 °F 72% 29.68 in 10.0 mi West 15.0 mph 19.6 mph N/A   Mostly Cloudy
9:55 PM 5.0 °F -13.0 °F -2.2 °F 72% 29.68 in 10.0 mi West 15.0 mph 20.7 mph N/A   Overcast
10:15 PM 5.0 °F -13.6 °F -2.2 °F 72% 29.69 in 10.0 mi West 16.1 mph 19.6 mph N/A   Overcast
10:35 PM 5.0 °F -13.6 °F -2.2 °F 72% 29.69 in 10.0 mi West 16.1 mph 24.2 mph N/A   Overcast
10:55 PM 5.0 °F -13.0 °F -2.2 °F 72% 29.70 in 10.0 mi West 15.0 mph 23.0 mph N/A   Overcast
11:15 PM 5.0 °F -13.6 °F -2.2 °F 72% 29.71 in 10.0 mi West 16.1 mph 20.7 mph N/A   Scattered Clouds
11:35 PM 3.2 °F -13.1 °F -2.2 °F 78% 29.72 in 10.0 mi West 11.5 mph 23.0 mph N/A   Clear
11:55 PM 5.0 °F -10.8 °F -2.2 °F 72% 29.74 in 10.0 mi West 11.5 mph 20.7 mph N/A   Clear